OV1-2

Satellite information

Favourite Embed

Satellite Type and Status

PAYLOADIN ORBIT

Key statistics

Satellite OV1-2 at a glance.

Uptime

21984

Days in orbit

Revolutions

≈ 13.0

Per day

Orbit

HEO

HEO

Inclination

144.2

Latest

Satellite identification and parameters

Extended collection of information and parameters for OV1-2.

Object identification

Identified? True

Debris? False

Object name: OV1-2

International designator: 1965-078A

Object number (NORAD): 1613

Object ID (CCSDS): 1613

Country: UNITED STATES OF AMERICA (US)

Current information (Y/N): Y

RCS size: MEDIUM

Orbital parameters

Period: 110.827 minutes

Inclination: 144.2202 deg

SMA: 7642.879 km

Apoapsis: 2134.319 km

Periapsis: 395.169 km

RAAN: 270.2274 deg

Eccentricy: 0.11377583

Argument of periapsis: 271.4714 deg

Mean anomaly: 75.6178 deg

Mean motion: 12.99323403 rev/day

Mean motion (dot): 0.00009312 rev/day2

B* drag term: 0.00091507423 1/REarth

Two-line elements (TLE)

Creation date: Dec. 12, 2025, 10:14 a.m.

Reference frame: TEME

Reference center: EARTH

Epoch: Dec. 12, 2025, 5:41 a.m. UTC

TLE line 0: 0 OV1-2

TLE line 1: 1 01613U 65078A 25346.23737980 .00009312 00000-0 91507-3 0 9996

TLE line 2: 2 01613 144.2202 270.2274 1137758 271.4714 75.6178 12.99323403690375

Live tracking on map

Real-time ground track for satellite OV1-2.

In-orbit conjunctions

A list of the most updated potential collisions computed for object OV1-2.

Target Orbit TCA Probability of collision Miss distance Type
CZ-6A DEB LEO 2025-07-29 04:53:22 0.0002048806 518.0 (m) DEBRIS
SL-8 R/B LEO 2025-05-26 21:46:54 0.000477162 365.0 (m) ROCKET BODY
H-2A R/B LEO 2025-05-04 11:43:11 0.0005290848 635.0 (m) ROCKET BODY

Associated space launch

The OV1 (Orbiting Vehicle 1) were small research satellite to be launched piggy back on Atlas ICBM test flights. They consisted in general of the OV1 satellite and the OV1-PM propulsion module (or upper stage) to reach orbit.

OV1-2 was lifted into orbit during the mission ‘Atlas D | OV1-2’, on board a Atlas D space rocket.

The launch took place on Oct. 5, 1965, 9:07 a.m. from 576B3.

For more information about the launch, click the button.

Launch to space Atlas D | OV1-2
Atlas D | OV1-2

Agency: N/A

Status: Launch Successful

Launch date: Oct. 5, 1965, 9:07 a.m. UTC

Rocket: Atlas D

Launch pad: 576B3

Location: Vandenberg SFB, CA, USA

...

Latest news about this satellite

There are no fresh news available about this satellite. Check back as we update our databases every day.


Newsletter sign-up

Weekly statistics, charts and insights to help you stay on top of the space industry.